GW1367 Weather Reports


time (UTC)temp
C
wind
direction
speed
KPH
gust
KPH
rain 1hr
cm
rain 24hr
cm
rain mn
cm
humidity
%
barometer
mb
20260505035704 19 270 0.0 0.0 0.00 0.03 0.03 73 1015.1
20260505035205 19 116 0.0 4.8 0.00 0.03 0.03 72 1014.9
20260505034205 19 70 0.0 3.2 0.00 0.03 0.03 72 1014.5
20260505033704 19 118 0.0 3.2 0.00 0.03 0.03 72 1014.7
20260505033204 19 101 0.0 1.6 0.00 0.03 0.03 71 1014.6
20260505032704 19 102 0.0 3.2 0.00 0.03 0.03 70 1014.4
20260505032205 19 144 0.0 8.0 0.00 0.03 0.03 70 1014.4
20260505031705 19 103 0.0 8.0 0.00 0.03 0.03 70 1014.3
20260505031204 19 105 0.0 1.6 0.00 0.03 0.03 69 1014.3
20260505030704 19 181 0.0 1.6 0.00 0.03 0.03 69 1014.1
20260505030205 19 112 0.0 1.6 0.00 0.03 0.03 69 1014.1
20260505025705 19 110 0.0 3.2 0.00 0.03 0.03 69 1013.9
20260505025204 19 105 0.0 0.0 0.00 0.03 0.03 68 1013.9
20260505024704 19 105 0.0 1.6 0.00 0.03 0.03 68 1013.7
20260505024205 19 104 0.0 3.2 0.00 0.03 0.03 68 1013.7
20260505023705 19 192 0.0 4.8 0.00 0.03 0.03 68 1013.7
20260505023205 19 214 0.0 3.2 0.00 0.03 0.03 67 1013.5
20260505022704 19 308 0.0 1.6 0.00 0.03 0.03 67 1013.5
20260505022206 19 107 0.0 3.2 0.00 0.03 0.03 67 1013.3
20260505021704 19 108 0.0 3.2 0.00 0.03 0.03 69 1013.8
20260505021205 19 277 0.0 0.0 0.00 0.03 0.03 68 1013.5
20260505020704 19 277 0.0 0.0 0.00 0.03 0.03 67 1013.4
20260505020204 20 277 1.6 4.8 0.00 0.03 0.03 66 1013.1
20260505015705 20 216 0.0 1.6 0.00 0.03 0.03 65 1012.9
20260505015205 20 0 0.0 0.0 0.00 0.03 0.03 65 1012.7
20260505014704 20 0 0.0 0.0 0.00 0.03 0.03 64 1012.6
20260505013705 20 0 0.0 1.6 0.00 0.03 0.03 62 1012.4
20260505010705 22 131 0.0 1.6 0.00 0.03 0.03 58 1011.7
20260505010204 22 292 0.0 1.6 0.00 0.03 0.03 57 1011.9
20260505005705 22 255 0.0 1.6 0.00 0.03 0.03 56 1011.9
20260505005204 22 281 0.0 4.8 0.00 0.03 0.03 54 1011.7
20260505004205 23 273 0.0 3.2 0.00 0.03 0.03 52 1011.7
20260505003705 23 267 0.0 4.8 0.00 0.03 0.03 52 1011.7
20260505003205 23 57 0.0 0.0 0.00 0.03 0.03 52 1011.7
20260505002705 23 106 0.0 3.2 0.00 0.03 0.03 51 1011.9
20260505002204 24 273 1.6 3.2 0.00 0.03 0.03 51 1012.1
20260505001705 24 272 1.6 8.0 0.00 0.03 0.03 49 1012.0
20260505001204 25 283 0.0 4.8 0.00 0.03 0.03 49 1012.0
20260505000704 25 283 0.0 3.2 0.00 0.03 0.03 49 1012.1
20260504235704 25 270 0.0 4.8 0.00 0.03 0.03 48 1012.3
20260504235205 25 258 1.6 8.0 0.00 0.03 0.03 48 1012.4
20260504234704 25 243 1.6 8.0 0.00 0.03 0.03 47 1012.4
20260504234204 25 271 3.2 9.7 0.00 0.03 0.03 47 1012.2
20260504233205 26 124 0.0 3.2 0.00 0.03 0.03 45 1012.2
20260504232205 26 257 3.2 11.3 0.00 0.03 0.03 43 1012.4
20260504231704 26 104 1.6 11.3 0.00 0.03 0.03 43 1012.4
20260504231204 26 99 1.6 9.7 0.00 0.03 0.03 43 1012.4
20260504230205 27 267 4.8 12.9 0.00 0.03 0.03 41 1012.5
20260504225704 27 273 1.6 9.7 0.00 0.03 0.03 41 1012.5
20260504224705 27 282 3.2 12.9 0.00 0.03 0.03 43 1012.6
20260504224204 27 250 3.2 8.0 0.00 0.03 0.03 42 1012.7
20260504223704 27 255 1.6 8.0 0.00 0.03 0.03 42 1012.7
20260504222704 27 280 1.6 9.7 0.00 0.03 0.03 43 1012.8
20260504222204 27 101 1.6 4.8 0.00 0.03 0.03 42 1012.8
20260504221704 27 203 4.8 12.9 0.00 0.03 0.03 43 1012.8
20260504221204 28 256 3.2 9.7 0.00 0.03 0.03 44 1012.9
20260504220704 28 288 0.0 8.0 0.00 0.03 0.03 42 1012.9
20260504215704 27 290 1.6 4.8 0.00 0.03 0.03 44 1013.1
20260504215205 27 245 1.6 9.7 0.00 0.03 0.03 44 1013.0
20260504214705 27 135 3.2 12.9 0.00 0.03 0.03 46 1013.1
20260504214204 27 276 4.8 12.9 0.00 0.03 0.03 45 1013.2
20260504213704 27 137 3.2 9.7 0.00 0.03 0.03 46 1013.1
20260504212704 27 249 1.6 14.5 0.00 0.03 0.03 45 1013.1
20260504212205 27 243 1.6 4.8 0.00 0.03 0.03 42 1013.1
20260504211204 28 132 1.6 4.8 0.00 0.03 0.03 42 1013.2
20260504210704 27 100 1.6 12.9 0.00 0.03 0.03 44 1013.4
20260504210204 27 247 1.6 11.3 0.00 0.03 0.03 43 1013.4
20260504205704 27 109 1.6 4.8 0.00 0.03 0.03 43 1013.5
20260504205205 27 291 4.8 12.9 0.00 0.03 0.03 42 1013.7
20260504204704 27 152 3.2 8.0 0.00 0.03 0.03 44 1013.9
20260504203704 27 231 4.8 16.1 0.00 0.03 0.03 44 1013.9
20260504203204 27 110 1.6 11.3 0.00 0.03 0.03 44 1013.9
20260504202704 27 132 3.2 8.0 0.00 0.03 0.03 43 1014.0
20260504202204 27 270 3.2 11.3 0.00 0.03 0.03 45 1014.2
20260504201704 27 323 4.8 14.5 0.00 0.03 0.03 46 1014.3
20260504201204 26 268 3.2 14.5 0.00 0.03 0.03 48 1014.2
20260504195705 27 301 3.2 12.9 0.00 0.03 0.03 46 1014.3
20260504194204 27 268 1.6 11.3 0.00 0.03 0.03 42 1014.7
20260504193704 27 270 6.4 16.1 0.00 0.03 0.03 44 1014.8
20260504193204 27 200 3.2 20.9 0.00 0.03 0.03 45 1014.9
20260504192704 27 143 3.2 11.3 0.00 0.03 0.03 44 1015.0
20260504192204 27 200 4.8 9.7 0.00 0.03 0.03 42 1015.0
20260504191204 27 86 3.2 11.3 0.00 0.03 0.03 44 1015.2
20260504190705 27 118 3.2 8.0 0.00 0.03 0.03 43 1015.2
20260504190204 26 143 3.2 12.9 0.00 0.03 0.03 43 1015.3
20260504185704 26 255 4.8 12.9 0.00 0.03 0.03 45 1015.3
20260504185204 26 129 3.2 11.3 0.00 0.03 0.03 48 1015.3
20260504184704 27 267 3.2 12.9 0.00 0.03 0.03 45 1015.2
20260504184204 27 268 1.6 11.3 0.00 0.03 0.03 45 1015.2
20260504183704 26 20 3.2 9.7 0.00 0.03 0.03 44 1015.4
20260504183204 26 116 1.6 8.0 0.00 0.03 0.03 47 1015.6
20260504182705 27 274 4.8 16.1 0.00 0.03 0.03 43 1015.5
20260504182205 27 270 1.6 8.0 0.00 0.03 0.03 42 1015.6
20260504181705 27 126 3.2 12.9 0.00 0.03 0.03 46 1015.7
20260504181206 27 71 3.2 9.7 0.00 0.03 0.03 42 1015.8
20260504180705 26 250 1.6 11.3 0.00 0.03 0.03 47 1015.9
20260504180205 27 278 1.6 11.3 0.00 0.03 0.03 45 1016.0
20260504175705 27 41 1.6 8.0 0.00 0.03 0.03 45 1016.0
20260504175207 27 230 1.6 9.7 0.00 0.03 0.03 45 1016.0
20260504174706 27 109 1.6 9.7 0.00 0.03 0.03 42 1016.1
20260504174205 26 146 3.2 11.3 0.00 0.03 0.03 42 1016.1
20260504173705 26 261 0.0 8.0 0.00 0.03 0.03 44 1016.2
20260504171705 26 185 1.6 11.3 0.00 0.03 0.03 45 1016.4
20260504171205 26 126 3.2 12.9 0.00 0.03 0.03 44 1016.4
20260504170705 26 153 3.2 12.9 0.00 0.03 0.03 50 1016.5
20260504170204 26 152 3.2 9.7 0.00 0.03 0.03 44 1016.3
20260504160205 25 135 1.6 9.7 0.00 0.03 0.03 43 1016.8
20260504150705 23 239 1.6 12.9 0.00 0.03 0.03 55 1017.2
20260504150205 23 187 1.6 9.7 0.00 0.03 0.03 58 1017.3
20260504141205 21 266 3.2 8.0 0.00 0.03 0.03 65 1017.7
20260504140705 21 179 0.0 4.8 0.00 0.03 0.03 68 1018.2
20260504140206 21 270 3.2 8.0 0.00 0.03 0.03 66 1017.4
20260504130205 14 70 0.0 1.6 0.00 0.03 0.03 99 1067.8
20260504120205 11 248 0.0 0.0 0.00 0.03 0.03 97 1062.6
20260504110705 11 248 0.0 0.0 0.00 0.03 0.03 97 1060.7
20260504110204 11 248 0.0 0.0 0.00 0.03 0.03 97 1060.7
20260504100205 11 248 0.0 0.0 0.00 0.03 0.03 96 1059.6
20260504081705 12 248 0.0 0.0 0.00 0.03 0.03 95 1057.1
20260504081205 12 248 0.0 0.0 0.00 0.03 0.03 95 1057.0
20260504080204 12 248 0.0 0.0 0.00 0.03 0.03 95 1056.5
20260504070204 13 248 0.0 1.6 0.00 0.03 0.03 94 1052.7
20260504050705 13 18 0.0 0.0 0.00 0.03 0.03 91 1043.2
20260504050205 13 18 0.0 0.0 0.00 0.05 0.03 90 1042.7
20260504045704 13 18 0.0 0.0 0.00 0.03 0.03 90 1042.6
20260504045204 13 18 0.0 0.0 0.00 0.03 0.03 90 1042.7
20260504044705 13 18 0.0 0.0 0.00 0.03 0.03 90 1042.9
20260504043705 14 18 0.0 0.0 0.00 0.03 0.03 90 1042.7
20260504043205 14 18 0.0 0.0 0.00 0.03 0.03 90 1042.5
20260504042704 14 18 0.0 0.0 0.00 0.03 0.03 90 1041.7
20260504042206 14 18 0.0 0.0 0.00 0.03 0.03 90 1040.7
20260504041705 14 18 0.0 0.0 0.00 0.03 0.03 90 1038.8
20260504041204 14 18 0.0 0.0 0.00 0.03 0.03 89 1038.2
20260504040704 14 18 0.0 0.0 0.00 0.03 0.03 89 1037.5
20260504040204 14 18 0.0 0.0 0.00 0.03 0.03 89 1035.8